Location: Huntsville
(41.2590°N, 111.7678°W)
Time: 21:14:59
(UTC+00:00)

Explorer 7 - Pass Details

Date: 13 June 2021
Orbit: 484 x 676 km, 50.3° (Epoch: 30 July)

Event Time Altitude Azimuth Distance (km) Brightness Sun altitude
Exits shadow 07:30:30 48° 281° (W) 853 7.7 -25.5°
Maximum altitude 07:31:32 60° 332° (NNW) 737 7.5 -25.5°
Drops below altitude 10° 07:36:06 10° 53° (NE) 1,995 10.1 -25.5°
Sets 07:38:23 0° 57° (ENE) 2,872 11.0 -25.5°
